Location: Dos Palmas
(32.4468°N, 116.8732°W)
Time: 05:27:33
(UTC+00:00)

Cosmos 1626 - Pass Details

Date: 20 June 2021
Orbit: 489 x 492 km, 82.5° (Epoch: 29 July)

Event Time Altitude Azimuth Distance (km) Brightness Sun altitude
Exits shadow 05:44:51 19° 268° (W) 1,208 4.3 -26.7°
Maximum altitude 05:45:27 20° 282° (WNW) 1,181 4.4 -26.8°
Drops below altitude 10° 05:48:15 10° 331° (NNW) 1,688 5.8 -27.1°
Sets 05:50:47 0° 349° (N) 2,575 6.8 -27.4°
